• In Uzbekistan
  • List of Countries
  • For 7 days
  • Water Temperature
  • Satellite Maps
  • Weather Map
  • Weather Widgets
  • user-avatar
    Login

    Hourly Weather Hrabniak

    Today, 24 September, Monday

    Time Temperature Precipitation Wind Pressure Humidity
    00:00 +10°C° 1 mm 4 mps 736 mmHg 92%
    01:00 +10°C° 1 mm 4 mps 735 mmHg 92%
    02:00 +9°C° 1 mm 5 mps 734 mmHg 92%
    03:00 +9°C° 1.1 mm 5 mps 733 mmHg 93%
    04:00 +9°C° 1.1 mm 5 mps 733 mmHg 93%
    05:00 +9°C° 1.1 mm 5 mps 732 mmHg 94%
    06:00 +8°C° 0.9 mm 6 mps 733 mmHg 92%
    07:00 +7°C° 0.9 mm 8 mps 734 mmHg 89%
    08:00 +6°C° 0.9 mm 9 mps 735 mmHg 87%
    09:00 +7°C° 0.2 mm 8 mps 736 mmHg 83%
    10:00 +9°C° 0.2 mm 8 mps 737 mmHg 78%
    11:00 +10°C° 0.2 mm 7 mps 738 mmHg 74%
    12:00 +11°C° 0.4 mm 8 mps 738 mmHg 71%
    13:00 +11°C° 0.4 mm 8 mps 739 mmHg 68%
    14:00 +11°C° 0.4 mm 8 mps 740 mmHg 65%
    15:00 +11°C° 0.2 mm 8 mps 740 mmHg 66%
    16:00 +11°C° 0.2 mm 7 mps 741 mmHg 67%
    17:00 +10°C° 0.2 mm 6 mps 741 mmHg 67%
    18:00 +9°C° 0.2 mm 6 mps 741 mmHg 71%
    19:00 +8°C° 0.2 mm 6 mps 742 mmHg 74%
    20:00 +8°C° 0.2 mm 6 mps 742 mmHg 78%
    21:00 +7°C° 0.2 mm 6 mps 743 mmHg 79%
    22:00 +7°C° 0.2 mm 6 mps 744 mmHg 81%
    23:00 +5°C° 0.2 mm 6 mps 744 mmHg 82%

    Tomorrow, 25 September, Tuesday

    Time Temperature Precipitation Wind Pressure Humidity
    00:00 +5°C° 0 mm 6 mps 745 mmHg 82%
    01:00 +4°C° 0 mm 6 mps 746 mmHg 83%
    02:00 +3°C° 0 mm 5 mps 747 mmHg 83%
    03:00 +3°C° 0 mm 5 mps 748 mmHg 82%
    04:00 +3°C° 0 mm 5 mps 748 mmHg 82%
    05:00 +3°C° 0 mm 5 mps 749 mmHg 81%
    06:00 +3°C° 0 mm 5 mps 750 mmHg 79%
    07:00 +4°C° 0 mm 6 mps 750 mmHg 78%
    08:00 +4°C° 0 mm 6 mps 751 mmHg 76%
    09:00 +5°C° 0.1 mm 6 mps 751 mmHg 70%
    10:00 +8°C° 0.1 mm 7 mps 751 mmHg 64%
    11:00 +9°C° 0.1 mm 7 mps 752 mmHg 58%
    12:00 +9°C° 0.2 mm 7 mps 752 mmHg 57%
    13:00 +9°C° 0.2 mm 7 mps 752 mmHg 55%
    14:00 +9°C° 0.2 mm 7 mps 753 mmHg 54%
    15:00 +9°C° 0.1 mm 7 mps 753 mmHg 56%
    16:00 +9°C° 0.1 mm 6 mps 753 mmHg 57%
    17:00 +8°C° 0.1 mm 6 mps 754 mmHg 59%
    18:00 +7°C° 0 mm 5 mps 754 mmHg 63%
    19:00 +6°C° 0 mm 5 mps 755 mmHg 67%
    20:00 +5°C° 0 mm 4 mps 756 mmHg 72%
    21:00 +5°C° 0 mm 4 mps 756 mmHg 74%
    22:00 +4°C° 0 mm 4 mps 757 mmHg 76%
    23:00 +4°C° 0 mm 3 mps 757 mmHg 78%

    Day after tomorrow, 26 September, Wednesday

    Time Temperature Precipitation Wind Pressure Humidity
    00:00 +3°C° 0 mm 3 mps 758 mmHg 81%
    01:00 +3°C° 0 mm 3 mps 758 mmHg 83%
    02:00 +3°C° 0 mm 2 mps 758 mmHg 85%
    03:00 +3°C° 0 mm 2 mps 758 mmHg 85%
    04:00 +3°C° 0 mm 2 mps 758 mmHg 85%
    05:00 +3°C° 0 mm 2 mps 758 mmHg 85%
    06:00 +3°C° 0 mm 3 mps 758 mmHg 80%
    07:00 +3°C° 0 mm 3 mps 758 mmHg 75%
    08:00 +4°C° 0 mm 3 mps 758 mmHg 70%
    09:00 +6°C° 0 mm 4 mps 758 mmHg 63%
    10:00 +8°C° 0 mm 5 mps 758 mmHg 55%
    11:00 +9°C° 0 mm 6 mps 757 mmHg 48%
    12:00 +10°C° 0 mm 6 mps 757 mmHg 47%
    13:00 +11°C° 0 mm 7 mps 756 mmHg 47%
    14:00 +11°C° 0 mm 7 mps 756 mmHg 46%
    15:00 +11°C° 0 mm 7 mps 755 mmHg 48%
    16:00 +11°C° 0 mm 6 mps 754 mmHg 50%
    17:00 +10°C° 0 mm 6 mps 753 mmHg 53%
    18:00 +10°C° 0 mm 6 mps 753 mmHg 53%
    19:00 +9°C° 0 mm 6 mps 753 mmHg 54%
    20:00 +9°C° 0 mm 6 mps 752 mmHg 54%
    21:00 +9°C° 0.1 mm 6 mps 752 mmHg 57%
    22:00 +9°C° 0.1 mm 6 mps 751 mmHg 60%
    23:00 +8°C° 0.1 mm 7 mps 751 mmHg 63%

    27 September, Thursday

    Time Temperature Precipitation Wind Pressure Humidity
    00:00 +8°C° 0.1 mm 7 mps 750 mmHg 66%
    01:00 +8°C° 0.1 mm 7 mps 750 mmHg 69%
    02:00 +8°C° 0.1 mm 7 mps 749 mmHg 72%
    03:00 +8°C° 0.1 mm 7 mps 749 mmHg 71%
    04:00 +9°C° 0.1 mm 7 mps 748 mmHg 70%
    05:00 +9°C° 0.1 mm 7 mps 748 mmHg 70%
    06:00 +9°C° 0.1 mm 7 mps 748 mmHg 72%
    07:00 +9°C° 0.1 mm 7 mps 747 mmHg 75%
    08:00 +9°C° 0.1 mm 7 mps 747 mmHg 78%
    09:00 +10°C° 0 mm 7 mps 747 mmHg 76%
    10:00 +11°C° 0 mm 7 mps 748 mmHg 74%
    11:00 +12°C° 0 mm 7 mps 748 mmHg 72%
    12:00 +14°C° 0 mm 7 mps 748 mmHg 71%
    13:00 +15°C° 0 mm 7 mps 748 mmHg 70%
    14:00 +16°C° 0 mm 7 mps 748 mmHg 69%
    15:00 +16°C° 0 mm 6 mps 747 mmHg 71%
    16:00 +16°C° 0 mm 6 mps 747 mmHg 73%
    17:00 +16°C° 0 mm 5 mps 747 mmHg 74%
    18:00 +15°C° 0 mm 5 mps 747 mmHg 78%
    19:00 +15°C° 0 mm 5 mps 747 mmHg 81%
    20:00 +14°C° 0 mm 4 mps 747 mmHg 84%
    21:00 +14°C° 0 mm 4 mps 747 mmHg 86%
    22:00 +13°C° 0 mm 4 mps 746 mmHg 87%
    23:00 +13°C° 0 mm 4 mps 746 mmHg 89%

    28 September, Friday

    Time Temperature Precipitation Wind Pressure Humidity
    00:00 +13°C° 0 mm 5 mps 746 mmHg 89%
    01:00 +13°C° 0 mm 5 mps 745 mmHg 89%
    02:00 +13°C° 0 mm 5 mps 745 mmHg 88%
    03:00 +13°C° 0 mm 6 mps 744 mmHg 87%
    04:00 +13°C° 0 mm 6 mps 744 mmHg 85%
    05:00 +13°C° 0 mm 6 mps 743 mmHg 84%
    06:00 +12°C° 0.3 mm 7 mps 743 mmHg 84%
    07:00 +12°C° 0.3 mm 7 mps 744 mmHg 83%
    08:00 +14°C° 0.3 mm 7 mps 744 mmHg 83%
    09:00 +12°C° 0.2 mm 7 mps 745 mmHg 79%
    10:00 +13°C° 0.2 mm 6 mps 745 mmHg 74%
    11:00 +13°C° 0.2 mm 6 mps 746 mmHg 70%
    12:00 +14°C° 0 mm 6 mps 746 mmHg 63%
    13:00 +15°C° 0 mm 5 mps 746 mmHg 56%
    14:00 +16°C° 0 mm 5 mps 747 mmHg 49%
    15:00 +15°C° 0 mm 4 mps 747 mmHg 50%
    16:00 +15°C° 0 mm 4 mps 747 mmHg 52%
    17:00 +14°C° 0 mm 3 mps 748 mmHg 54%
    18:00 +12°C° 0 mm 3 mps 748 mmHg 58%
    19:00 +11°C° 0 mm 3 mps 749 mmHg 62%
    20:00 +9°C° 0 mm 3 mps 749 mmHg 66%
    21:00 +9°C° 0 mm 3 mps 750 mmHg 69%
    22:00 +8°C° 0 mm 3 mps 750 mmHg 71%
    23:00 +7°C° 0 mm 2 mps 751 mmHg 73%

    29 September, Saturday

    Time Temperature Precipitation Wind Pressure Humidity
    00:00 +7°C° 0 mm 2 mps 751 mmHg 74%
    01:00 +7°C° 0 mm 2 mps 752 mmHg 75%
    02:00 +7°C° 0 mm 2 mps 752 mmHg 76%
    03:00 +6°C° 0 mm 2 mps 752 mmHg 80%
    04:00 +5°C° 0 mm 2 mps 753 mmHg 83%
    05:00 +5°C° 0 mm 2 mps 753 mmHg 86%
    06:00 +5°C° 0 mm 2 mps 754 mmHg 83%
    07:00 +5°C° 0 mm 2 mps 754 mmHg 81%
    08:00 +6°C° 0 mm 2 mps 755 mmHg 78%
    09:00 +7°C° 0 mm 2 mps 755 mmHg 69%
    10:00 +9°C° 0 mm 2 mps 755 mmHg 60%
    11:00 +10°C° 0 mm 2 mps 756 mmHg 50%
    12:00 +12°C° 0 mm 2 mps 755 mmHg 46%
    13:00 +12°C° 0 mm 2 mps 755 mmHg 42%
    14:00 +13°C° 0 mm 2 mps 755 mmHg 39%
    15:00 +13°C° 0 mm 1 mps 755 mmHg 41%
    16:00 +12°C° 0 mm 1 mps 755 mmHg 43%
    17:00 +12°C° 0 mm 1 mps 755 mmHg 46%
    18:00 +11°C° 0 mm 1 mps 755 mmHg 49%
    19:00 +8°C° 0 mm 2 mps 755 mmHg 53%
    20:00 +7°C° 0 mm 2 mps 756 mmHg 56%
    21:00 +6°C° 0 mm 2 mps 756 mmHg 58%
    22:00 +6°C° 0 mm 2 mps 756 mmHg 61%
    23:00 +5°C° 0 mm 2 mps 756 mmHg 63%
    Show more